Weather History for Frederick, OK

Change the Weather History Date:

Monday, November 19, 2012

  Actual Average (KLTS) Record (KLTS)
Temperature  
Mean Temperature 64 °F -  
Max Temperature 77 °F 58 °F 82 °F (2007)
Min Temperature 52 °F 36 °F 28 °F (1997)
Growing Degree Days 14 (Base 50)    
Moisture  
Dew Point 48 °F    
Average Humidity 64    
Maximum Humidity 86    
Minimum Humidity 31    
Precipitation  
Precipitation 0.00 in - - ()
Sea Level Pressure  
Sea Level Pressure 30.06 in    
Wind  
Wind Speed 9 mph (South)    
Max Wind Speed 15 mph    
Max Gust Speed -    
Visibility 10 miles    
Events      
Averages and records for this station are not official NWS values.
T = Trace of Precipitation, MM = Missing Value Source: NWS Daily Summary

Daily Weather History Graph

Daily Weather History Graph

Search for Another Location

Airport:

Trip Planner

Search our weather history database for the weather conditions in past years. The results will help you decide how hot, cold, wet, or windy it might be!

Date:

Astronomy

Nov. 19, 2012 Rise Set
Actual Time 7:13 AM CST 5:29 PM CST
Civil Twilight 6:46 AM CST 5:56 PM CST
Nautical Twilight 6:15 AM CST 6:26 PM CST
Astronomical Twilight 5:46 AM CST 6:56 PM CST
Moon 12:22 PM CST (11/19) 11:50 PM CST (11/19)
Length of Visible Light 11h 09m
Length of Day
10h 15m
Waxing Crescent, 41% of the Moon is Illuminated
Nov 19
Waxing Crescent
Nov 20
First Quarter
Nov 28
Full
Dec 6
Last Quarter
Dec 13
New

Hourly Weather History & Observations

Time (CST) Temp. Dew Point Humidity Pressure Visibility Wind Dir Wind Speed Gust Speed Precip Events Conditions
12:53 AM 57.0 °F 48.9 °F 74% 30.06 in 10.0 mi South 10.4 mph - N/A   Overcast
1:53 AM 57.9 °F 50.0 °F 75% 30.07 in 10.0 mi South 9.2 mph - N/A   Overcast
2:53 AM 55.9 °F 51.1 °F 84% 30.07 in 10.0 mi South 8.1 mph - N/A   Mostly Cloudy
3:53 AM 54.0 °F 50.0 °F 86% 30.06 in 10.0 mi SSE 5.8 mph - N/A   Overcast
4:53 AM 54.0 °F 50.0 °F 86% 30.06 in 10.0 mi SSE 6.9 mph - N/A   Mostly Cloudy
5:53 AM 54.0 °F 48.9 °F 83% 30.07 in 10.0 mi South 10.4 mph - N/A   Mostly Cloudy
6:53 AM 52.0 °F 48.0 °F 86% 30.09 in 10.0 mi South 9.2 mph - N/A   Clear
7:53 AM 54.0 °F 50.0 °F 86% 30.09 in 10.0 mi South 9.2 mph - N/A   Clear
8:53 AM 57.9 °F 51.1 °F 78% 30.10 in 10.0 mi South 9.2 mph - N/A   Clear
9:53 AM 64.0 °F 53.1 °F 67% 30.09 in 10.0 mi SSW 15.0 mph - N/A   Clear
10:53 AM 68.0 °F 52.0 °F 56% 30.08 in 10.0 mi SSW 10.4 mph - N/A   Clear
11:53 AM 70.0 °F 52.0 °F 53% 30.06 in 10.0 mi SSW 11.5 mph - N/A   Clear
12:53 PM 72.0 °F 51.1 °F 48% 30.04 in 10.0 mi South 9.2 mph - N/A   Clear
1:53 PM 75.9 °F 50.0 °F 40% 30.02 in 10.0 mi SW 11.5 mph - N/A   Clear
2:53 PM 75.9 °F 48.9 °F 38% 30.01 in 10.0 mi SSW 11.5 mph - N/A   Clear
3:53 PM 77.0 °F 45.0 °F 32% 30.00 in 10.0 mi SSW 5.8 mph - N/A   Clear
4:53 PM 75.0 °F 42.1 °F 31% 30.01 in 10.0 mi SW 5.8 mph - N/A   Clear
5:53 PM 68.0 °F 42.1 °F 39% 30.04 in 9.0 mi Calm Calm - N/A   Clear
6:53 PM 68.0 °F 42.1 °F 39% 30.06 in 10.0 mi Calm Calm - N/A   Clear
7:53 PM 62.1 °F 45.0 °F 53% 30.08 in 10.0 mi SE 3.5 mph - N/A   Clear
9:53 PM 55.0 °F 46.0 °F 72% 30.08 in 10.0 mi NE 10.4 mph - N/A   Clear
10:53 PM 54.0 °F 46.0 °F 75% 30.08 in 10.0 mi NE 9.2 mph - N/A   Clear
11:53 PM 52.0 °F 46.0 °F 80% 30.08 in 10.0 mi NNE 10.4 mph - N/A   Clear